Radiation Dose at Monitoring Post of Fukushima Daini Nuclear Power Station
Date,Time,MP-1(microSv/h),MP-2(microSv/h),MP-3(microSv/h),MP-4(microSv/h),MP-5(microSv/h),MP-6(microSv/h),MP-7(microSv/h),Wind Direction,Wind Velocity(m/s),Rain
2018/01/21,00:00,0.335,0.204,0.335,0.317,0.303,0.167,0.101,northwest,10.9,No
2018/01/21,00:10,0.338,0.204,0.336,0.317,0.304,0.167,0.100,west-northwest,10.6,No
2018/01/21,00:20,0.336,0.203,0.337,0.317,0.304,0.169,0.101,northwest,9.0,No
2018/01/21,00:30,0.334,0.204,0.334,0.316,0.303,0.167,0.100,northwest,6.7,No
2018/01/21,00:40,0.335,0.204,0.335,0.318,0.302,0.167,0.100,northwest,2.8,No
2018/01/21,00:50,0.337,0.204,0.336,0.316,0.304,0.168,0.099,south-southwest,1.2,No
2018/01/21,01:00,0.335,0.203,0.336,0.316,0.303,0.167,0.100,north,1.4,No
2018/01/21,01:10,0.336,0.205,0.336,0.317,0.303,0.167,0.100,north,3.8,No
2018/01/21,01:20,0.335,0.205,0.334,0.317,0.303,0.167,0.101,north-northeast,3.9,No
2018/01/21,01:30,0.337,0.204,0.336,0.317,0.302,0.167,0.101,northeast,3.1,No
2018/01/21,01:40,0.336,0.204,0.337,0.317,0.303,0.168,0.101,north-northeast,2.2,No
2018/01/21,01:50,0.337,0.205,0.336,0.317,0.302,0.167,0.101,north,4.4,No
2018/01/21,02:00,0.337,0.204,0.336,0.317,0.303,0.167,0.101,north-northeast,3.0,No
2018/01/21,02:10,0.337,0.204,0.336,0.317,0.305,0.167,0.101,northeast,3.8,No
2018/01/21,02:20,0.335,0.204,0.334,0.318,0.303,0.167,0.101,north-northeast,3.1,No
2018/01/21,02:30,0.336,0.205,0.335,0.317,0.302,0.167,0.100,north,3.7,No
2018/01/21,02:40,0.336,0.204,0.335,0.316,0.303,0.167,0.100,north-northeast,3.6,No
2018/01/21,02:50,0.336,0.204,0.335,0.318,0.303,0.168,0.100,north-northeast,3.1,No
2018/01/21,03:00,0.337,0.204,0.336,0.317,0.303,0.168,0.101,north,3.1,No
2018/01/21,03:10,0.336,0.203,0.336,0.316,0.303,0.168,0.101,north,4.1,No
2018/01/21,03:20,0.337,0.203,0.335,0.316,0.302,0.168,0.101,north,4.1,No
2018/01/21,03:30,0.336,0.205,0.335,0.317,0.304,0.168,0.100,north,4.5,No
2018/01/21,03:40,0.337,0.205,0.336,0.317,0.303,0.167,0.100,north,5.8,No
2018/01/21,03:50,0.335,0.203,0.336,0.317,0.302,0.168,0.100,north-northwest,6.3,No
2018/01/21,04:00,0.335,0.203,0.335,0.315,0.302,0.168,0.100,north,5.9,No
2018/01/21,04:10,0.335,0.204,0.335,0.316,0.304,0.167,0.101,north,6.2,No
2018/01/21,04:20,0.338,0.205,0.334,0.315,0.304,0.167,0.100,north,6.6,No
2018/01/21,04:30,0.336,0.205,0.336,0.317,0.303,0.168,0.101,north,5.3,No
2018/01/21,04:40,0.337,0.204,0.336,0.318,0.302,0.168,0.101,north,4.9,No
2018/01/21,04:50,0.337,0.205,0.336,0.318,0.303,0.168,0.100,north-northwest,4.6,No
2018/01/21,05:00,0.336,0.203,0.335,0.316,0.303,0.168,0.101,north-northwest,5.2,No
2018/01/21,05:10,0.336,0.204,0.336,0.317,0.304,0.167,0.100,north-northwest,4.8,No
2018/01/21,05:20,0.336,0.205,0.335,0.316,0.302,0.167,0.101,north-northwest,4.4,No
2018/01/21,05:30,0.337,0.204,0.337,0.317,0.302,0.168,0.101,north-northwest,6.3,No
2018/01/21,05:40,0.335,0.203,0.337,0.318,0.303,0.168,0.101,north-northwest,7.4,No
2018/01/21,05:50,0.337,0.204,0.336,0.316,0.304,0.166,0.100,north-northwest,7.3,No
2018/01/21,06:00,0.337,0.204,0.336,0.316,0.302,0.168,0.101,north-northwest,7.5,No
2018/01/21,06:10,0.338,0.204,0.334,0.316,0.301,0.167,0.101,north-northwest,6.2,No
2018/01/21,06:20,0.335,0.204,0.335,0.317,0.302,0.167,0.101,north,5.0,No
2018/01/21,06:30,0.338,0.203,0.336,0.317,0.303,0.167,0.100,north,5.3,No
2018/01/21,06:40,0.336,0.204,0.336,0.317,0.305,0.168,0.100,north,4.4,No
2018/01/21,06:50,0.336,0.204,0.335,0.316,0.303,0.168,0.101,north-northwest,3.9,No
2018/01/21,07:00,0.338,0.204,0.336,0.318,0.303,0.168,0.101,north-northwest,3.5,No
2018/01/21,07:10,0.335,0.204,0.336,0.317,0.303,0.168,0.101,north-northwest,3.0,No
2018/01/21,07:20,0.337,0.205,0.337,0.316,0.304,0.167,0.101,north-northwest,3.2,No
2018/01/21,07:30,0.337,0.204,0.336,0.316,0.303,0.168,0.101,north-northwest,2.6,No
2018/01/21,07:40,0.337,0.205,0.336,0.316,0.301,0.168,0.101,north-northwest,2.2,No
2018/01/21,07:50,0.337,0.204,0.336,0.318,0.302,0.169,0.100,north,1.9,No
2018/01/21,08:00,0.338,0.203,0.335,0.318,0.304,0.167,0.100,north-northwest,0.9,No
2018/01/21,08:10,0.336,0.205,0.336,0.316,0.304,0.168,0.101,north,2.1,No
2018/01/21,08:20,0.338,0.204,0.336,0.316,0.302,0.168,0.101,north,1.3,No
2018/01/21,08:30,0.337,0.205,0.336,0.317,0.303,0.167,0.100,north,3.3,No
2018/01/21,08:40,0.336,0.205,0.335,0.316,0.305,0.167,0.101,north-northeast,2.2,No
2018/01/21,08:50,0.337,0.202,0.335,0.315,0.304,0.167,0.100,north-northeast,2.7,No
2018/01/21,09:00,0.337,0.204,0.336,0.315,0.304,0.168,0.099,east-northeast,0.8,No
2018/01/21,09:10,0.337,0.204,0.336,0.316,0.303,0.167,0.101,east-northeast,2.4,No
2018/01/21,09:20,0.335,0.204,0.337,0.316,0.304,0.168,0.100,east-northeast,1.7,No
2018/01/21,09:30,0.336,0.204,0.334,0.316,0.303,0.167,0.100,east-northeast,2.0,No
2018/01/21,09:40,0.336,0.203,0.335,0.317,0.303,0.167,0.100,east-northeast,1.7,No
2018/01/21,09:50,0.335,0.202,0.336,0.315,0.303,0.167,0.100,east-southeast,1.4,No
2018/01/21,10:00,0.336,0.203,0.336,0.315,0.303,0.167,0.101,south-southeast,1.5,No
2018/01/21,10:10,0.336,0.201,0.336,0.317,0.303,0.168,0.100,south-southeast,2.2,No
2018/01/21,10:20,0.334,0.202,0.333,0.315,0.303,0.168,0.101,southeast,2.6,No
2018/01/21,10:30,0.336,0.203,0.336,0.316,0.301,0.167,0.100,south,4.1,No
2018/01/21,10:40,0.334,0.202,0.335,0.316,0.302,0.168,0.100,south,3.6,No
2018/01/21,10:50,0.334,0.202,0.335,0.317,0.303,0.168,0.100,south-southeast,4.1,No
2018/01/21,11:00,0.334,0.202,0.335,0.317,0.302,0.169,0.100,south,4.8,No
2018/01/21,11:10,0.335,0.203,0.334,0.316,0.304,0.168,0.100,south,3.6,No
2018/01/21,11:20,0.334,0.203,0.335,0.316,0.302,0.168,0.100,south-southeast,3.1,No
2018/01/21,11:30,0.334,0.202,0.337,0.317,0.305,0.168,0.100,east-southeast,1.5,No
2018/01/21,11:40,0.335,0.204,0.337,0.315,0.303,0.168,0.101,south-southeast,2.6,No
2018/01/21,11:50,0.334,0.204,0.334,0.317,0.304,0.168,0.101,south-southeast,4.1,No
2018/01/21,12:00,0.336,0.204,0.336,0.317,0.302,0.168,0.101,south-southeast,4.3,No
2018/01/21,12:10,0.335,0.203,0.335,0.316,0.305,0.168,0.100,south-southeast,3.0,No
2018/01/21,12:20,0.337,0.204,0.336,0.317,0.303,0.168,0.100,south-southeast,3.1,No
2018/01/21,12:30,0.334,0.204,0.335,0.317,0.304,0.168,0.099,south-southeast,2.4,No
2018/01/21,12:40,0.336,0.205,0.336,0.316,0.306,0.168,0.101,south,3.9,No
2018/01/21,12:50,0.336,0.204,0.335,0.317,0.305,0.168,0.100,south,5.5,No
2018/01/21,13:00,0.335,0.204,0.336,0.318,0.304,0.169,0.100,south,3.9,No
2018/01/21,13:10,0.337,0.204,0.336,0.318,0.305,0.168,0.100,south-southeast,3.9,No
2018/01/21,13:20,0.336,0.203,0.334,0.316,0.304,0.168,0.100,south,5.5,No
2018/01/21,13:30,0.337,0.204,0.336,0.319,0.303,0.168,0.100,south,4.3,No
2018/01/21,13:40,0.337,0.204,0.337,0.317,0.304,0.167,0.101,south-southeast,3.1,No
2018/01/21,13:50,0.335,0.204,0.333,0.317,0.305,0.168,0.100,south,4.8,No
2018/01/21,14:00,0.337,0.203,0.335,0.318,0.303,0.169,0.101,south,2.1,No
2018/01/21,14:10,0.337,0.204,0.335,0.317,0.305,0.167,0.101,south-southwest,2.2,No
2018/01/21,14:20,0.335,0.203,0.335,0.316,0.305,0.166,0.100,southwest,1.3,No
2018/01/21,14:30,0.336,0.204,0.334,0.318,0.303,0.168,0.101,south-southwest,1.7,No
2018/01/21,14:40,0.337,0.205,0.338,0.317,0.304,0.168,0.100,southwest,2.3,No
2018/01/21,14:50,0.335,0.204,0.335,0.317,0.304,0.168,0.100,southwest,0.7,No
2018/01/21,15:00,0.336,0.204,0.335,0.316,0.304,0.167,0.101,northwest,0.9,No
2018/01/21,15:10,0.336,0.204,0.336,0.317,0.305,0.167,0.100,-,CALM,No
2018/01/21,15:20,0.336,0.202,0.335,0.315,0.303,0.168,0.101,southwest,1.5,No
2018/01/21,15:30,0.337,0.203,0.335,0.317,0.303,0.168,0.100,west-southwest,1.4,No
2018/01/21,15:40,0.337,0.203,0.336,0.319,0.306,0.168,0.100,west-southwest,2.3,No
2018/01/21,15:50,0.337,0.204,0.334,0.316,0.303,0.168,0.100,southwest,1.0,No
2018/01/21,16:00,0.336,0.204,0.334,0.315,0.303,0.168,0.100,south,1.6,No
2018/01/21,16:10,0.335,0.204,0.338,0.318,0.304,0.168,0.101,south,2.2,No
2018/01/21,16:20,0.336,0.204,0.335,0.316,0.303,0.168,0.101,southeast,1.2,No
2018/01/21,16:30,0.336,0.204,0.335,0.316,0.305,0.167,0.101,east-northeast,2.3,No
2018/01/21,16:40,0.337,0.204,0.336,0.317,0.305,0.168,0.101,northeast,3.0,No
2018/01/21,16:50,0.336,0.204,0.334,0.318,0.304,0.167,0.101,south-southeast,1.2,No
2018/01/21,17:00,0.337,0.203,0.335,0.317,0.302,0.168,0.101,south,2.0,No
2018/01/21,17:10,0.336,0.204,0.336,0.317,0.302,0.168,0.100,west-northwest,1.0,No
2018/01/21,17:20,0.336,0.205,0.336,0.318,0.304,0.169,0.100,north-northwest,2.4,No
2018/01/21,17:30,0.335,0.204,0.336,0.318,0.303,0.168,0.100,north,6.9,No
2018/01/21,17:40,0.337,0.203,0.336,0.318,0.303,0.168,0.100,north,9.0,No
2018/01/21,17:50,0.335,0.203,0.336,0.316,0.303,0.167,0.101,north-northeast,3.8,No
2018/01/21,18:00,0.336,0.203,0.335,0.318,0.303,0.167,0.100,north-northeast,4.6,No
2018/01/21,18:10,0.337,0.203,0.336,0.317,0.303,0.168,0.100,northeast,2.8,No
2018/01/21,18:20,0.336,0.204,0.337,0.317,0.304,0.167,0.101,north-northeast,2.2,No
2018/01/21,18:30,0.338,0.203,0.336,0.317,0.305,0.168,0.101,north,5.7,No
2018/01/21,18:40,0.337,0.204,0.336,0.318,0.302,0.169,0.101,north,8.1,No
2018/01/21,18:50,0.337,0.203,0.337,0.319,0.303,0.167,0.100,north,8.7,No
2018/01/21,19:00,0.336,0.203,0.337,0.319,0.304,0.168,0.101,north,9.5,No
2018/01/21,19:10,0.338,0.205,0.337,0.317,0.304,0.168,0.100,north,8.4,No
2018/01/21,19:20,0.339,0.205,0.336,0.319,0.304,0.168,0.101,north,7.1,No
2018/01/21,19:30,0.337,0.205,0.337,0.317,0.302,0.169,0.100,north,7.0,No
2018/01/21,19:40,0.337,0.204,0.336,0.317,0.304,0.167,0.101,north,7.3,No
2018/01/21,19:50,0.337,0.203,0.338,0.317,0.304,0.169,0.101,north,7.3,No
2018/01/21,20:00,0.337,0.204,0.336,0.317,0.304,0.168,0.101,north,8.1,No
2018/01/21,20:10,0.337,0.204,0.336,0.319,0.304,0.168,0.100,north,7.3,No
2018/01/21,20:20,0.337,0.204,0.337,0.317,0.303,0.168,0.100,north,6.4,No
2018/01/21,20:30,0.337,0.205,0.337,0.318,0.302,0.167,0.101,north,6.3,No
2018/01/21,20:40,0.338,0.205,0.338,0.318,0.302,0.168,0.101,north,7.0,No
2018/01/21,20:50,0.336,0.203,0.337,0.319,0.304,0.168,0.100,north,6.1,No
2018/01/21,21:00,0.336,0.205,0.335,0.318,0.302,0.167,0.100,north,6.6,No
2018/01/21,21:10,0.338,0.204,0.337,0.317,0.303,0.167,0.099,north,6.0,No
2018/01/21,21:20,0.337,0.204,0.336,0.318,0.302,0.168,0.101,north,4.2,No
2018/01/21,21:30,0.338,0.205,0.336,0.318,0.304,0.168,0.101,north-northwest,1.0,No
2018/01/21,21:40,0.337,0.203,0.337,0.317,0.303,0.168,0.101,north-northwest,3.2,No
2018/01/21,21:50,0.337,0.203,0.336,0.318,0.302,0.168,0.100,north,3.9,No
2018/01/21,22:00,0.337,0.203,0.336,0.317,0.303,0.167,0.100,north-northwest,2.5,No
2018/01/21,22:10,0.337,0.204,0.337,0.318,0.303,0.167,0.100,north,1.9,No
2018/01/21,22:20,0.336,0.205,0.336,0.317,0.304,0.168,0.101,northwest,1.1,No
2018/01/21,22:30,0.336,0.204,0.337,0.317,0.303,0.168,0.101,north-northwest,3.0,No
2018/01/21,22:40,0.339,0.205,0.336,0.318,0.303,0.167,0.100,north-northwest,3.5,No
2018/01/21,22:50,0.337,0.204,0.336,0.317,0.302,0.168,0.101,north-northwest,3.6,No
2018/01/21,23:00,0.336,0.204,0.337,0.318,0.302,0.168,0.101,north,3.3,No
2018/01/21,23:10,0.337,0.204,0.338,0.317,0.303,0.168,0.101,north,2.2,No
2018/01/21,23:20,0.336,0.204,0.337,0.317,0.303,0.168,0.101,north-northwest,3.8,No
2018/01/21,23:30,0.337,0.204,0.336,0.317,0.302,0.169,0.100,north-northwest,2.9,No
2018/01/21,23:40,0.337,0.204,0.336,0.318,0.302,0.168,0.101,north,4.7,No
2018/01/21,23:50,0.338,0.205,0.336,0.318,0.302,0.167,0.100,north,5.5,No
